ONEWEB-0317, 49103

Orbit data source: Space-Track

ONEWEB-0317, 49103 is a payload satellite owned by One Web (NAA) (UK) in LEO that was launched on Sat, 21 Aug 2021 UTC via a SOYUZ-2-1B launch vehicle from the Tyuratam Missile And Space Complex (TTMTR). Payload-class satellites include a variety of spacecraft equipped with specific instruments for various scientific and technological missions. These include communications satellites like Starlink; space stations such as the ISS; scientific satellites like the Hubble; Earth observation satellites from companies like Planet Labs, Umbra, and HawkEye 360; GPS; miniature CubeSats for education and research; and military/defense satellites.

Loading next visibility...
Identifier
49103, 2021-075AE
Orbit
LEO
Country
Flag of UKUK
Related business
Manufacturer
One Web
Mission
Operational Commercial Communications
Bus & Motor
ARROW, Unknown motor
Mass
148 kg wet, ~140 kg dry
Launch date (UTC)
2021-08-21 (5 years ago)
Launch vehicle
SOYUZ-2-1B
Launch site
Tyuratam Missile And Space Complex (TTMTR)
Object type
Payload
Rocket body
Debris
Shape & HBR
Trap Box + 2 Pan, 6.7 m
Radar Cross Section
3.464 m², Large (>1 m²)

Expand to show TLE details & history
Last TLE update: 21 hours ago

TLE from 21 hours ago
0 ONEWEB-0317
1 49103U 21075AE  26175.22570948  .00000160  00000-0  41004-3 0  9999
2 49103  87.8952 349.2685 0001801 115.4731 244.6585 13.12444991236112
Epoch: 2026-06-24T05:25Z
TLE epoch observation values (Epoch: 2026-06-24T05:25:01.299Z)
Latitude
0.0001°
Longitude
-4.37288°
Altitude
1,217.192 km
Speed
7.245 km/s
True Right ascension
23h 17m 04s
True Declination
0° 00' 00"
Sunlit
Object was in daylight at epoch
Visualization orbit readout
Latitude
Unknown
Longitude
Unknown
Altitude
Unknown
Speed
Unknown
Apparent Right ascension
Unknown
Apparent Declination
Unknown
Sunlit
N/A
Visualization observer readout
Local Sidereal Time
13:54:06
Azimuth
Unknown
Elevation
Unknown
Doppler factor
Unknown
Orbital elements
Apogee altitude
1,212.199 km
Perigee altitude
1,209.465 km
Semi-major axis
7,588.969 km
Eccentricity
0.00018
Inclination
87.8952°
RAAN
349.2685°
Arg. of periapsis
115.4731°
True anomaly
244.63985°
Mean anomaly
244.6585°
Eccentric anomaly
244.64917°
Mean motion
3.28299 °/min
Orbital period
109.66 mins
BSTAR
0.00041004
Loading maneuver chart data...
Computing Atmospheric mass density...
Loading historical data...
Loading historical data...
Loading historical data...
Loading historical data...
Loading historical data...
Loading historical data...
Loading historical data...

Documentation

Showing up to 5 results
|